Location: Berlin
(52.5170°N, 13.4000°E)
Time: 06:16:20
(UTC+02:00)

ISS - Pass Details

Date: 19 July 2018
Orbit: 402 x 408 km, 51.6° (Epoch: 21 July)

Event Time Altitude Azimuth Distance (km) Brightness Sun altitude
Rises 03:06:04 0° 278° (W) 2,331 -0.2 -12.6°
Reaches altitude 10° 03:08:10 10° 274° (W) 1,471 -1.2 -12.4°
Maximum altitude 03:11:25 59° 195° (SSW) 477 -3.8 -12.2°
Drops below altitude 10° 03:14:40 10° 115° (ESE) 1,470 -0.9 -12.0°
Sets 03:16:46 0° 111° (ESE) 2,330 0.1 -11.8°
